Hourly Data Report for October 05, 2012

All times are specified in Local Standard Time (LST). Add 1 hour to adjust for Daylight Saving Time where and when it is observed.

KITCHENER/WATERLOO
ONTARIO

43°27'39.000" N
80°22'43.000" W
321.60 m
6144239
71368
YKF

Download Data

Hourly Data (October 2012)
Hourly Data Report for October 5, 2012
Temp Definition
°C
Dew Point Temp Definition
°C
Rel Hum Definition
%
Wind Dir Definition
10's deg

Wind Spd Definition
km/h
Visibility Definition
km
Stn Press Definition
kPa
Hmdx Definition


Wind Chill Definition


Weather Definition


TIME
00:00 Legend Double Dagger 14.5 11.1 80 18 8 16.1 97.76     LegendNANA
01:00 Legend Double Dagger 14.7 11.9 83 22 13 16.1 97.74     LegendNANA
02:00 Legend Double Dagger 16.2 13.2 82 22 9 16.1 97.69     LegendNANA
03:00 Legend Double Dagger 16.8 13.2 79 24 21 16.1 97.67     LegendNANA
04:00 Legend Double Dagger 16.0 13.6 85 23 15 14.5 97.66     LegendNANA
05:00 Legend Double Dagger 15.5 13.7 89 24 21 16.1 97.66     LegendNANA
06:00 Legend Double Dagger 15.9 14.1 89 24 28 16.1 97.68     LegendNANA
07:00 Legend Double Dagger 15.2 12.0 81 25 21 16.1 97.71     LegendNANA
08:00 Legend Double Dagger 15.0 11.5 79 26 22 16.1 97.73     LegendNANA
09:00 Legend Double Dagger 14.7 10.2 74 25 26 16.1 97.76     LegendNANA
10:00 Legend Double Dagger 14.8 9.2 69 27 22 16.1 97.76     LegendNANA
11:00 Legend Double Dagger 15.6 8.8 64 27 30 16.1 97.72     LegendNANA
12:00 Legend Double Dagger 14.8 7.7 62 27 26 16.1 97.71     LegendNANA
13:00 Legend Double Dagger 14.6 5.7 55 26 28 16.1 97.71     LegendNANA
14:00 Legend Double Dagger 14.7 6.5 58 24 22 16.1 97.69     LegendNANA
15:00 Legend Double Dagger 14.1 4.3 51 26 22 16.1 97.65     LegendNANA
16:00 Legend Double Dagger 14.1 3.3 48 25 26 16.1 97.61     LegendNANA
17:00 Legend Double Dagger 13.7 5.0 55 25 15 16.1 97.55     LegendNANA
18:00 Legend Double Dagger 13.2 5.0 57 25 15 16.1 97.54     LegendNANA
19:00 Legend Double Dagger 10.9 6.8 76 27 22 16.1 97.65     LegendNANA
20:00 Legend Double Dagger 10.1 7.5 84 25 15 16.1 97.53     LegendNANA
21:00 Legend Double Dagger 9.6 7.3 86 24 15 16.1 97.52     LegendNANA
22:00 Legend Double Dagger 8.8 7.6 92 24 13 11.3 97.47     LegendNANA
23:00 Legend Double Dagger 8.7 7.7 94 24 15 11.3 97.42     LegendNANA

Notes on Data Quality.

Legend

  • E = Estimated
  • M = Missing
  • NA = Not Available
  • ‡ = Partner data that is not subject to review by the National Climate Archives
Date modified: